[[{"header":{"parameterUnit":"m.s-1","parameterCategory":2,"la1":30.2991,"la2":30.254,"lo1":-89.0895,"lo2":-89.0444,"dy":0.0017,"dx":0.0017,"nx":28,"ny":28,"refTime":"2024-07-10T03:00:00:Z","depth":"0","parameterNumber":2,"parameterNumberName":"U-component_of_CURRENTS"},"data":[0,0,0,0,0,0,0,0,0,0,0,0,0,0,0,0,0,0,0,0,0,0,0,0,0,0,0,0,0,0,0,0,0,0,0,0,0,0,0,0,0,0,0,0,0,0,0,0,0,0,0,0,0,0,0,0,0,0,0.2625,0.2626,0,0.2652,0.2651,0.2651,0.2604,0.2603,0.2603,0.2602,0.2559,0.2558,0.2558,0,0,0,0,0,0,0,0,0,0,0,0,0,0.2463,0.2466,0.2624,0.2626,0.2627,0.2652,0.2651,0.2651,0.2604,0.2603,0.2603,0.2602,0.2559,0.2558,0.2558,0,0,0,0,0,0,0,0,0,0,0,0,0,0.2508,0.2467,0.2624,0.2613,0.2613,0.2652,0.2651,0.265,0.2605,0.2603,0.2602,0.2601,0.2559,0.2558,0.2558,0.2575,0,0,0.2556,0.2555,0,0,0,0,0,0,0,0,0.2505,0.2512,0.2614,0.2614,0.2615,0.2631,0.2579,0.2625,0.2605,0.2598,0.2602,0.2601,0.2583,0.2581,0.2576,0.2573,0.2572,0.2556,0.2555,0.2555,0.2555,0,0,0,0,0,0,0,0.2502,0.2511,0.2626,0.2615,0.2616,0.2584,0.2589,0.2587,0.2588,0.2599,0.2598,0.2616,0.2582,0.2577,0.2575,0.2571,0.2556,0.2555,0.2555,0.2554,0.2625,0.2627,0,0,0,0,0,0,0.2523,0.2509,0.2625,0.2628,0.2566,0.2589,0.2594,0.262,0.259,0.2587,0.2617,0.2614,0.2579,0.2576,0.2573,0.2607,0.2555,0.2554,0.2554,0.2623,0.2626,0.2628,0,0,0,0,0,0,0.252,0.2534,0.2624,0.2575,0.2585,0.2595,0.2623,0.2621,0.2619,0.2606,0.26,0.2618,0.2578,0.2574,0.2587,0.2604,0.2554,0.2553,0.262,0.2624,0.2627,0.2665,0,0,0,0,0,0,0.2515,0.2532,0.2553,0.2577,0.259,0.264,0.2625,0.2623,0.2636,0.2632,0.2606,0.26,0.2577,0.2588,0.2586,0.2602,0.2553,0.2617,0.2622,0.2626,0.2661,0.267,0.2677,0,0,0,0,0,0.2509,0.254,0.2554,0.2568,0.262,0.2641,0.2642,0.2638,0.2638,0.2632,0.2634,0.2601,0.2614,0.259,0.2587,0.2603,0.2615,0.262,0.2625,0.2657,0.2668,0.2677,0,0,0,0,0,0,0.2479,0.2541,0.2555,0.2604,0.2622,0.2636,0.264,0.2648,0.2645,0.2638,0.2625,0.262,0.2644,0.2628,0.2602,0.2642,0.2612,0.2617,0.2638,0.2647,0.2655,0.2675,0.2552,0,0,0,0,0,0.2489,0.2528,0.257,0.2607,0.2617,0.2632,0.2643,0.264,0.2649,0.2646,0.2639,0.2643,0.2665,0.2658,0.2666,0.2679,0.269,0.2694,0.2702,0.2708,0.2727,0.2753,0.2764,0.2645,0.2645,0.2645,0,0,0.2492,0.253,0.2554,0.2603,0.2614,0.2642,0.2631,0.2644,0.2668,0.2644,0.2664,0.267,0.2681,0.2701,0.2709,0.2684,0.2753,0.2715,0.2719,0.2735,0.2759,0.2771,0.2781,0.2649,0.2648,0.2647,0,0,0.2511,0.2544,0.2579,0.26,0.263,0.2641,0.2651,0.2668,0.2669,0.2698,0.2703,0.2728,0.2736,0.2753,0.2765,0.2827,0.2804,0.2824,0.2862,0.2887,0.2896,0.2904,0.2948,0.296,0.2815,0.2815,0.2815,0,0.2518,0.2562,0.2587,0.2623,0.2639,0.2648,0.2671,0.269,0.2711,0.2716,0.2707,0.2763,0.2769,0.2818,0.285,0.2843,0.2857,0.2816,0.2894,0.2903,0.2911,0.2954,0.2966,0.2817,0.2817,0.2817,0.2817,0,0.2557,0.2592,0.2607,0.2662,0.2681,0.2693,0.2728,0.2738,0.2746,0.2765,0.2804,0.2824,0.285,0.2868,0.2883,0.2946,0.2941,0.2907,0.2862,0.2924,0.2967,0.2979,0.2821,0.282,0.2819,0.2819,0,0,0.2573,0.2627,0.2631,0.2647,0.2692,0.2707,0.2749,0.2777,0.2805,0.2825,0.2859,0.2923,0.2921,0.2941,0.2953,0.2991,0.3076,0.298,0.298,0.3011,0.3147,0.307,0.3075,0.3042,0.3044,0.3046,0.3159,0,0.259,0.2642,0.2668,0.2707,0.2726,0.2744,0.2785,0.2815,0.2837,0.2873,0.2901,0.2944,0.2951,0.2967,0.3008,0.306,0.3108,0.305,0.3095,0.3098,0.3008,0.3087,0.2877,0.2954,0.3171,0.3173,0.3175,0,0.261,0.2641,0.2672,0.2712,0.2722,0.2751,0.2786,0.2826,0.2883,0.2903,0.2939,0.2961,0.3038,0.3027,0.3136,0.3093,0.3139,0.3176,0.3179,0.3102,0.3042,0.2926,0.2968,0.2894,0.3194,0.3192,0.3191,0,0.2578,0.2637,0.2649,0.2667,0.2725,0.2734,0.2765,0.2822,0.2846,0.2922,0.2941,0.3015,0.305,0.3116,0.3185,0.3168,0.3297,0.3265,0.3245,0.3241,0.3072,0.3048,0.3032,0.3355,0.3355,0.3354,0.3354,0,0.2573,0.2587,0.2633,0.2643,0.2662,0.2714,0.2739,0.2788,0.2847,0.288,0.2948,0.2981,0.3075,0.3139,0.3204,0.326,0.3302,0.3284,0.3268,0.3082,0.3058,0.2992,0.2968,0.3358,0.3358,0.3357,0.3356,0,0.2534,0.2563,0.2583,0.2632,0.2644,0.2659,0.2708,0.2731,0.2804,0.2849,0.2872,0.297,0.3061,0.3143,0.3265,0.327,0.3238,0.3348,0.3136,0.3093,0.2982,0.2968,0.2876,0.2807,0.3352,0.3351,0.335,0,0.252,0.2522,0.2558,0.2562,0.2579,0.2606,0.2621,0.2696,0.2722,0.2831,0.2845,0.2949,0.3004,0.3145,0.3165,0.3248,0.3195,0.3118,0.3049,0.2971,0.2946,0.2857,0.28,0.2859,0.2854,0.285,0.2846,0,0.2487,0.249,0.2502,0.2511,0.2518,0.2534,0.2565,0.2577,0.2667,0.2709,0.2782,0.2839,0.2941,0.2914,0.3001,0.3027,0.2928,0.3038,0.2997,0.2604,0.2465,0.2389,0.2818,0.281,0.2814,0.2816,0.2818,0.282,0.2453,0.2443,0.2449,0.2446,0.2456,0.2456,0.2438,0.248,0.2507,0.2544,0.2662,0.2686,0.269,0.2764,0.2773,0.2636,0.2705,0.2561,0.2573,0.2509,0.2359,0.2728,0.2667,0.267,0.2672,0.2674,0.2676,0,0.2406,0.2392,0.2388,0.2373,0.2347,0.2381,0.2388,0.2355,0.2347,0.2409,0.2451,0.2408,0.2352,0.2359,0.2253,0.2178,0.209,0.2136,0.1955,0.1944,0.2296,0.2189,0.1969,0.1969,0.1969,0.1969,0.1969,0.1969,0.2381,0.2344,0.2328,0.2261,0.2248,0.2189,0.2171,0.2145,0.2161,0.2098,0.2053,0.2071,0.2077,0.1992,0.1871,0.1834,0.1738,0.1608,0.1718,0.195,0.199,0.2028,0.1922,0.165,0.165,0.1222,0.1219,0.1217]},{"header":{"parameterUnit":"m.s-1","parameterCategory":2,"la1":30.2991,"la2":30.254,"lo1":-89.0895,"lo2":-89.0444,"dy":0.0017,"dx":0.0017,"nx":28,"ny":28,"refTime":"2024-07-10T03:00:00:Z","depth":"0","parameterNumber":3,"parameterNumberName":"V-component_of_CURRENTS"},"data":[0,0,0,0,0,0,0,0,0,0,0,0,0,0,0,0,0,0,0,0,0,0,0,0,0,0,0,0,0,0,0,0,0,0,0,0,0,0,0,0,0,0,0,0,0,0,0,0,0,0,0,0,0,0,0,0,0,0,-0.0353,-0.0353,0,-0.0359,-0.0358,-0.0358,-0.0394,-0.0395,-0.0397,-0.0398,-0.04,-0.0398,-0.0397,0,0,0,0,0,0,0,0,0,0,0,0,0,-0.0292,-0.0293,-0.0353,-0.0354,-0.0354,-0.0359,-0.0358,-0.0358,-0.0393,-0.0395,-0.0397,-0.0399,-0.04,-0.0399,-0.0397,0,0,0,0,0,0,0,0,0,0,0,0,0,-0.0304,-0.0293,-0.0353,-0.0377,-0.038,-0.0359,-0.0358,-0.0358,-0.0393,-0.0395,-0.0397,-0.0399,-0.0401,-0.0399,-0.0397,-0.0341,0,0,-0.0391,-0.039,0,0,0,0,0,0,0,0,-0.0304,-0.0306,-0.0373,-0.0376,-0.0379,-0.0383,-0.0338,-0.0354,-0.0392,-0.0381,-0.0398,-0.04,-0.0396,-0.0395,-0.0382,-0.0341,-0.0341,-0.0391,-0.0389,-0.0389,-0.0388,0,0,0,0,0,0,0,-0.0303,-0.0305,-0.0349,-0.0374,-0.0377,-0.0361,-0.0365,-0.034,-0.0371,-0.0382,-0.0387,-0.0397,-0.0397,-0.0384,-0.0383,-0.0341,-0.0391,-0.0389,-0.0388,-0.0387,-0.0319,-0.0318,0,0,0,0,0,0,-0.0317,-0.0305,-0.0349,-0.035,-0.0353,-0.0361,-0.0365,-0.0374,-0.0372,-0.0376,-0.0395,-0.0399,-0.0386,-0.0385,-0.0383,-0.035,-0.0389,-0.0387,-0.0386,-0.0319,-0.0319,-0.0318,0,0,0,0,0,0,-0.0315,-0.0321,-0.0349,-0.0332,-0.0336,-0.0361,-0.037,-0.0373,-0.0368,-0.0383,-0.0385,-0.0389,-0.0388,-0.0386,-0.0373,-0.035,-0.0386,-0.0384,-0.032,-0.0319,-0.0318,-0.0264,0,0,0,0,0,0,-0.0314,-0.032,-0.0305,-0.0333,-0.0338,-0.0324,-0.0369,-0.0372,-0.0374,-0.0379,-0.0378,-0.038,-0.0389,-0.0376,-0.0371,-0.0348,-0.0383,-0.0321,-0.032,-0.0319,-0.0266,-0.0261,-0.0257,0,0,0,0,0,-0.0311,-0.027,-0.0305,-0.0309,-0.0326,-0.0323,-0.0321,-0.0342,-0.0372,-0.0349,-0.037,-0.038,-0.0366,-0.0373,-0.0368,-0.0343,-0.0321,-0.032,-0.0319,-0.0269,-0.0262,-0.0257,0,0,0,0,0,0,-0.0208,-0.0272,-0.031,-0.0285,-0.0307,-0.0331,-0.0302,-0.0335,-0.033,-0.0336,-0.0363,-0.0364,-0.0348,-0.0351,-0.036,-0.0323,-0.0347,-0.0345,-0.0311,-0.0305,-0.03,-0.0282,-0.0381,0,0,0,0,0,-0.019,-0.0195,-0.0248,-0.0227,-0.0235,-0.0273,-0.027,-0.0295,-0.0309,-0.0309,-0.0324,-0.0334,-0.0332,-0.0326,-0.0322,-0.0288,-0.0294,-0.0273,-0.0268,-0.0264,-0.0247,-0.0246,-0.0239,-0.0313,-0.0313,-0.0313,0,0,-0.0145,-0.0181,-0.0181,-0.0209,-0.0224,-0.0219,-0.0273,-0.0264,-0.0263,-0.0307,-0.0292,-0.0312,-0.0322,-0.0298,-0.029,-0.0299,-0.0246,-0.0262,-0.0258,-0.0243,-0.0244,-0.0237,-0.023,-0.0312,-0.0312,-0.0312,0,0,-0.0063,-0.0091,-0.0075,-0.0093,-0.0128,-0.0154,-0.0157,-0.0191,-0.0204,-0.0201,-0.0242,-0.025,-0.0241,-0.0248,-0.0249,-0.0209,-0.0224,-0.0213,-0.0163,-0.0163,-0.0156,-0.0151,-0.0149,-0.0143,-0.0205,-0.0205,-0.0205,0,-0.0003,-0.0007,-0.006,-0.0051,-0.0058,-0.0129,-0.0108,-0.0121,-0.0151,-0.0156,-0.019,-0.0199,-0.0214,-0.019,-0.0188,-0.0195,-0.02,-0.0184,-0.0155,-0.015,-0.0145,-0.0144,-0.0139,-0.0202,-0.0203,-0.0203,-0.0203,0,0.0069,0.0071,0.009,0.0054,0.0051,0.0064,0.0012,0.0006,-0.0036,-0.0065,-0.0066,-0.0096,-0.0106,-0.0115,-0.0139,-0.0111,-0.0127,-0.0153,-0.0168,-0.0134,-0.0136,-0.0131,-0.0198,-0.0199,-0.02,-0.0201,0,0,0.0174,0.0144,0.0146,0.0139,0.0102,0.0102,0.011,0.0093,0.0096,0.0056,0.0067,0.0043,0.0003,-0.0002,-0.0038,-0.004,-0.0023,-0.0078,-0.008,-0.0071,-0.0018,-0.0015,-0.0011,-0.0046,-0.0045,-0.0044,-0.0033,0,0.024,0.0268,0.0237,0.0267,0.0273,0.0219,0.0229,0.0204,0.0174,0.0171,0.0123,0.012,0.0053,0.0045,0.0032,-0.0006,-0.0008,-0.0023,-0.0056,-0.0057,-0.0054,-0.0004,0.0016,0.0029,-0.0029,-0.0028,-0.0028,0,0.0303,0.0308,0.0349,0.0339,0.034,0.0355,0.0345,0.0347,0.0324,0.03,0.0279,0.023,0.0217,0.015,0.011,0.0102,0.0051,0.0015,0.0014,0.0005,-0.0044,-0.0014,0.0039,-0.0047,-0.0021,-0.0022,-0.0022,0,0.0361,0.0381,0.0411,0.0408,0.0397,0.0414,0.0411,0.0392,0.0401,0.0386,0.0393,0.0348,0.0335,0.027,0.0176,0.0145,0.0138,0.0082,0.004,0.0039,0.0046,0.0045,0.002,0.0062,0.0062,0.0062,0.0062,0,0.0421,0.0445,0.0442,0.0455,0.0498,0.0473,0.0517,0.0503,0.0509,0.0543,0.0465,0.0489,0.0363,0.0328,0.0231,0.0164,0.0177,0.0071,0.0051,0.0065,0.0065,-0.0019,-0.0078,0.0062,0.0062,0.0062,0.0062,0,0.047,0.0468,0.0501,0.0513,0.0523,0.0552,0.0581,0.0612,0.0607,0.0655,0.0654,0.0605,0.0564,0.0446,0.0352,0.0248,0.0135,0.0141,0.0167,0.0151,0.0018,-0.0038,-0.0057,-0.0091,0.01,0.01,0.01,0,0.0495,0.0516,0.0544,0.0575,0.0587,0.0627,0.0659,0.0659,0.0698,0.0736,0.0772,0.0743,0.0741,0.0609,0.0434,0.029,0.0177,0.0186,0.0126,0.004,-0.0038,-0.0071,-0.0101,0.0153,0.0154,0.0154,0.0155,0,0.0542,0.055,0.0576,0.0638,0.0683,0.0728,0.0779,0.0822,0.0842,0.0899,0.0974,0.0985,0.0858,0.0724,0.0505,0.0389,0.0141,0.0192,0.0099,0.0012,-0.0019,-0.007,0.0111,0.0159,0.0159,0.0159,0.0158,0.0158,0.0575,0.0606,0.0643,0.0704,0.076,0.0828,0.0878,0.0949,0.1033,0.1131,0.1139,0.1199,0.0966,0.0684,0.0513,0.0201,0.0188,0.0086,0.0029,0.0008,-0.0031,0.0168,0.0192,0.0191,0.0191,0.0191,0.0191,0,0.0609,0.0648,0.071,0.078,0.0852,0.0865,0.0956,0.1021,0.1146,0.1257,0.1343,0.1282,0.1011,0.0703,0.0274,0.0065,-0.0011,-0.0052,-0.0102,-0.0125,0.0053,0.0048,0.0047,0.0047,0.0047,0.0047,0.0047,0.0048,0.0628,0.069,0.0724,0.0843,0.0901,0.0987,0.1041,0.116,0.1257,0.1404,0.1458,0.1467,0.1211,0.0489,-0.0002,-0.0117,-0.0251,-0.0263,-0.0344,-0.0245,-0.0237,-0.023,-0.0248,-0.031,-0.0311,-0.0484,-0.0486,-0.0487]}],[{"header":{"parameterUnit":"m.s-1","parameterCategory":2,"la1":30.2991,"la2":30.254,"lo1":-89.0895,"lo2":-89.0444,"dy":0.0017,"dx":0.0017,"nx":28,"ny":28,"refTime":"2024-07-10T03:00:00:Z","depth":"2","parameterNumber":2,"parameterNumberName":"U-component_of_CURRENTS"},"data":[0,0,0,0,0,0,0,0,0,0,0,0,0,0,0,0,0,0,0,0,0,0,0,0,0,0,0,0,0,0,0,0,0,0,0,0,0,0,0,0,0,0,0,0,0,0,0,0,0,0,0,0,0,0,0,0,0,0,0.1977,0.1978,0,0.2014,0.2014,0.2014,0.1995,0.1994,0.1994,0.1993,0.2031,0.2033,0.2034,0,0,0,0,0,0,0,0,0,0,0,0,0,0.1953,0.1953,0.1977,0.1978,0.1979,0.2014,0.2014,0.2014,0.1995,0.1994,0.1993,0.1993,0.2031,0.2032,0.2034,0,0,0,0,0,0,0,0,0,0,0,0,0,0.197,0.1953,0.1977,0.1976,0.1977,0.2014,0.2014,0.2014,0.1995,0.1994,0.1993,0.1992,0.203,0.2032,0.2035,0.2068,0,0,0.2042,0.2043,0,0,0,0,0,0,0,0,0.1969,0.197,0.1976,0.1976,0.1977,0.2002,0.202,0.2033,0.1995,0.1984,0.1993,0.1992,0.2025,0.2028,0.2031,0.207,0.2071,0.2042,0.2044,0.2045,0.2045,0,0,0,0,0,0,0,0.1968,0.1969,0.1988,0.1977,0.1978,0.1996,0.1996,0.2022,0.2006,0.1985,0.1985,0.1995,0.2025,0.2029,0.2032,0.2072,0.2042,0.2044,0.2046,0.2047,0.2129,0.213,0,0,0,0,0,0,0.1969,0.1968,0.1987,0.1989,0.1975,0.1997,0.1997,0.1992,0.2006,0.2008,0.1996,0.1994,0.2025,0.2029,0.2033,0.2063,0.2045,0.2047,0.2048,0.2128,0.2129,0.213,0,0,0,0,0,0,0.1968,0.197,0.1985,0.1984,0.1987,0.1998,0.1993,0.1993,0.2007,0.2015,0.2016,0.201,0.2024,0.203,0.2067,0.2065,0.2048,0.205,0.2127,0.2129,0.213,0.213,0,0,0,0,0,0,0.1967,0.1969,0.1973,0.1983,0.1987,0.2005,0.1994,0.1995,0.2016,0.2014,0.2028,0.2029,0.2024,0.2064,0.2069,0.2068,0.2052,0.2126,0.2128,0.2129,0.2129,0.2131,0.2133,0,0,0,0,0,0.1966,0.1956,0.1972,0.1976,0.1989,0.2006,0.201,0.2013,0.2018,0.2022,0.204,0.203,0.2076,0.2067,0.2073,0.2072,0.2126,0.2127,0.2129,0.2128,0.2131,0.2133,0,0,0,0,0,0,0.1953,0.1955,0.1972,0.1967,0.1993,0.2004,0.2015,0.2026,0.2044,0.2051,0.2053,0.2057,0.2082,0.2089,0.2079,0.2101,0.2094,0.2097,0.2091,0.2094,0.2095,0.2113,0.2054,0,0,0,0,0,0.1956,0.1949,0.1969,0.1975,0.1987,0.2011,0.2024,0.2032,0.205,0.2056,0.2068,0.2083,0.2094,0.2104,0.2116,0.2144,0.2178,0.2144,0.2146,0.2147,0.2167,0.2198,0.2205,0.2136,0.2136,0.2135,0,0,0.1962,0.1961,0.1962,0.1974,0.1996,0.2005,0.2014,0.2039,0.205,0.2061,0.2084,0.2097,0.2105,0.2121,0.2133,0.2127,0.2193,0.2149,0.215,0.217,0.2201,0.2207,0.2213,0.2137,0.2136,0.2136,0,0,0.1955,0.1966,0.1957,0.1972,0.2004,0.2018,0.2029,0.2055,0.2068,0.21,0.2103,0.2125,0.2146,0.2147,0.215,0.2179,0.2202,0.2176,0.2199,0.2228,0.2234,0.224,0.2324,0.2337,0.2174,0.2174,0.2174,0,0.1967,0.1953,0.1964,0.1962,0.198,0.2022,0.2032,0.2051,0.2087,0.2111,0.2106,0.2152,0.2154,0.2177,0.218,0.2181,0.2225,0.2184,0.223,0.2236,0.2242,0.2327,0.2341,0.2175,0.2175,0.2175,0.2175,0,0.1954,0.195,0.1951,0.1958,0.1977,0.1998,0.2029,0.206,0.2089,0.2112,0.2156,0.2169,0.22,0.219,0.2195,0.2233,0.2264,0.2228,0.2223,0.2249,0.2337,0.2352,0.2175,0.2175,0.2175,0.2175,0,0,0.1958,0.1944,0.1947,0.1954,0.1981,0.1999,0.2028,0.2072,0.211,0.2139,0.2188,0.2197,0.2229,0.2238,0.2244,0.2265,0.2345,0.2271,0.2273,0.2354,0.2465,0.23,0.2301,0.2316,0.2318,0.2319,0.2522,0,0.1955,0.1946,0.1938,0.1953,0.1961,0.1999,0.2024,0.2072,0.2119,0.2176,0.2208,0.2257,0.2239,0.2272,0.2288,0.2338,0.238,0.2297,0.243,0.2435,0.2281,0.2309,0.2103,0.2247,0.2536,0.2539,0.2541,0,0.1942,0.1941,0.1949,0.1961,0.1972,0.1992,0.2066,0.2092,0.2173,0.2215,0.2271,0.2312,0.2381,0.2346,0.2453,0.2407,0.2448,0.2472,0.248,0.2334,0.2294,0.2262,0.2264,0.2566,0.2564,0.2562,0.256,0,0.1948,0.1944,0.1958,0.1964,0.1989,0.2018,0.2048,0.2119,0.2162,0.2264,0.2323,0.2393,0.2465,0.2506,0.2567,0.253,0.2681,0.263,0.2529,0.2522,0.2376,0.2348,0.2701,0.2701,0.27,0.27,0.2699,0,0.1935,0.1937,0.197,0.1978,0.2019,0.2037,0.21,0.2141,0.2221,0.228,0.2358,0.2415,0.2507,0.2594,0.262,0.263,0.2731,0.2553,0.2548,0.237,0.2342,0.2627,0.2616,0.2707,0.2706,0.2704,0.2703,0,0.1907,0.1929,0.1943,0.1991,0.2018,0.2051,0.2123,0.216,0.225,0.2334,0.238,0.249,0.2556,0.2635,0.273,0.2696,0.272,0.2699,0.2507,0.2469,0.2545,0.2532,0.2614,0.261,0.2606,0.2603,0.26,0,0.1875,0.1889,0.1957,0.1983,0.2004,0.2063,0.21,0.2177,0.2212,0.2352,0.2381,0.2494,0.2497,0.2587,0.2546,0.2566,0.2646,0.2408,0.2244,0.2542,0.2531,0.2524,0.2516,0.2106,0.2099,0.2094,0.209,0,0.1825,0.1869,0.1891,0.195,0.1999,0.2036,0.2092,0.2115,0.2202,0.2262,0.2294,0.2311,0.2357,0.2232,0.2266,0.2245,0.237,0.229,0.2687,0.2104,0.2062,0.205,0.2061,0.2043,0.2047,0.2051,0.2053,0.2055,0.1796,0.1804,0.1859,0.1892,0.1951,0.1966,0.1942,0.1968,0.1984,0.1983,0.2088,0.2028,0.2063,0.191,0.1877,0.1874,0.201,0.1957,0.1976,0.1999,0.1848,0.1794,0.1704,0.1706,0.1709,0.1711,0.1713,0,0.1735,0.1761,0.1789,0.1815,0.1804,0.1888,0.1896,0.1805,0.1722,0.1769,0.1723,0.156,0.1475,0.1533,0.1429,0.1431,0.1449,0.1394,0.1413,0.1459,0.1501,0.1326,0.1043,0.1041,0.104,0.1038,0,0,0.1714,0.17,0.1694,0.165,0.1674,0.1607,0.1575,0.1447,0.1413,0.1308,0.1278,0.1332,0.1444,0.12,0.1181,0.1097,0.1271,0.1054,0.1588,0.1654,0.1694,0.182,0.1599,0,0,0,0,0]},{"header":{"parameterUnit":"m.s-1","parameterCategory":2,"la1":30.2991,"la2":30.254,"lo1":-89.0895,"lo2":-89.0444,"dy":0.0017,"dx":0.0017,"nx":28,"ny":28,"refTime":"2024-07-10T03:00:00:Z","depth":"2","parameterNumber":3,"parameterNumberName":"V-component_of_CURRENTS"},"data":[0,0,0,0,0,0,0,0,0,0,0,0,0,0,0,0,0,0,0,0,0,0,0,0,0,0,0,0,0,0,0,0,0,0,0,0,0,0,0,0,0,0,0,0,0,0,0,0,0,0,0,0,0,0,0,0,0,0,-0.0054,-0.0056,0,-0.0224,-0.0226,-0.0228,-0.0312,-0.0312,-0.0312,-0.0313,-0.0389,-0.039,-0.0392,0,0,0,0,0,0,0,0,0,0,0,0,0,0.0112,0.011,-0.0054,-0.0056,-0.0059,-0.0224,-0.0226,-0.0228,-0.0312,-0.0312,-0.0312,-0.0313,-0.0388,-0.039,-0.0392,0,0,0,0,0,0,0,0,0,0,0,0,0,0.0003,0.0109,-0.0054,-0.0122,-0.013,-0.0224,-0.0226,-0.0229,-0.0312,-0.0312,-0.0312,-0.0313,-0.0387,-0.039,-0.0393,-0.0403,0,0,-0.0401,-0.0402,0,0,0,0,0,0,0,0,0.0009,-0.0003,-0.011,-0.0118,-0.0127,-0.0249,-0.0196,-0.0283,-0.0312,-0.024,-0.0313,-0.0313,-0.0335,-0.0342,-0.0371,-0.0407,-0.041,-0.0401,-0.0403,-0.0404,-0.0405,0,0,0,0,0,0,0,0.0017,0.0004,-0.0119,-0.0112,-0.0123,-0.0174,-0.0189,-0.0214,-0.028,-0.0247,-0.0254,-0.0276,-0.0338,-0.0368,-0.0373,-0.0411,-0.0401,-0.0404,-0.0405,-0.0407,-0.0493,-0.0494,0,0,0,0,0,0,0.0038,0.0011,-0.0114,-0.0125,-0.0061,-0.0177,-0.0193,-0.0208,-0.0282,-0.0295,-0.0276,-0.028,-0.0364,-0.037,-0.0376,-0.0423,-0.0404,-0.0407,-0.0408,-0.0492,-0.0493,-0.0494,0,0,0,0,0,0,0.0042,0.0029,-0.0107,-0.0063,-0.0084,-0.0179,-0.0195,-0.0211,-0.0249,-0.0306,-0.0317,-0.0298,-0.0364,-0.0372,-0.0414,-0.0425,-0.0408,-0.0411,-0.0492,-0.0493,-0.0494,-0.0496,0,0,0,0,0,0,0.0048,0.0032,0.002,-0.0061,-0.0086,-0.016,-0.0195,-0.0214,-0.0263,-0.027,-0.0328,-0.0336,-0.0365,-0.041,-0.0417,-0.0428,-0.0413,-0.0491,-0.0492,-0.0493,-0.0495,-0.0497,-0.0499,0,0,0,0,0,0.0055,0.0035,0.0021,0.0005,-0.0095,-0.0161,-0.0178,-0.0245,-0.0264,-0.028,-0.0328,-0.0335,-0.0422,-0.0413,-0.0421,-0.0433,-0.049,-0.0492,-0.0493,-0.0494,-0.0497,-0.0499,0,0,0,0,0,0,0.0064,0.0022,0.0005,-0.0036,-0.0089,-0.0176,-0.0212,-0.0244,-0.0297,-0.0306,-0.0347,-0.0359,-0.0401,-0.0414,-0.0402,-0.0462,-0.0455,-0.0458,-0.0453,-0.0456,-0.0457,-0.0421,-0.0415,0,0,0,0,0,0.0072,0.0065,0.0003,-0.0035,-0.0057,-0.0129,-0.0167,-0.0206,-0.0263,-0.0289,-0.033,-0.0372,-0.0413,-0.0431,-0.0467,-0.0496,-0.0478,-0.0507,-0.0509,-0.0511,-0.0487,-0.0489,-0.0488,-0.0499,-0.0499,-0.0499,0,0,0.0055,0.0035,0.0021,-0.003,-0.008,-0.0105,-0.0153,-0.021,-0.024,-0.0285,-0.034,-0.0381,-0.0423,-0.0467,-0.0485,-0.0479,-0.0497,-0.0512,-0.0513,-0.0488,-0.049,-0.0489,-0.0488,-0.05,-0.05,-0.0499,0,0,0.0037,0.001,0.0008,-0.0013,-0.0068,-0.0108,-0.0117,-0.0193,-0.0238,-0.029,-0.0334,-0.0378,-0.0439,-0.0474,-0.0498,-0.0525,-0.051,-0.0539,-0.0515,-0.0519,-0.0517,-0.0516,-0.0481,-0.0476,-0.0535,-0.0535,-0.0535,0,0.0018,0.0014,-0.0012,-0.001,-0.0031,-0.0098,-0.0109,-0.0165,-0.0247,-0.0278,-0.0303,-0.0397,-0.044,-0.0482,-0.0502,-0.0527,-0.051,-0.0507,-0.0519,-0.0517,-0.0515,-0.048,-0.0475,-0.0536,-0.0536,-0.0536,-0.0536,0,0.0013,0.0012,0.0001,0.0001,-0.0023,-0.0054,-0.0108,-0.0149,-0.0205,-0.0257,-0.0322,-0.0388,-0.0429,-0.0465,-0.0497,-0.0512,-0.0497,-0.0524,-0.0509,-0.0514,-0.0477,-0.0471,-0.0536,-0.0536,-0.0536,-0.0536,0,0,-0.0031,-0.0005,-0.0007,0.0009,-0.0014,-0.0039,-0.0077,-0.0135,-0.0158,-0.0242,-0.0264,-0.0366,-0.0391,-0.0417,-0.0463,-0.0478,-0.0468,-0.0492,-0.0492,-0.0446,-0.044,-0.0423,-0.0415,-0.0499,-0.0498,-0.0497,-0.0414,0,-0.0033,-0.0012,0.0002,0.0008,0.001,-0.0019,-0.0043,-0.0094,-0.0154,-0.019,-0.0268,-0.0303,-0.0377,-0.0384,-0.0419,-0.0451,-0.0454,-0.0485,-0.0449,-0.0447,-0.0424,-0.041,-0.0401,-0.0326,-0.0408,-0.0407,-0.0407,0,-0.0033,-0.0015,0.0,0.0032,0.0028,0.0026,-0.0005,-0.003,-0.0088,-0.0124,-0.0167,-0.0213,-0.0247,-0.0304,-0.0348,-0.0362,-0.0392,-0.0421,-0.042,-0.0393,-0.0421,-0.0337,-0.0312,-0.0397,-0.0398,-0.0399,-0.0399,0,-0.0037,-0.0011,0.0003,0.0013,0.0029,0.0026,0.0022,-0.0021,-0.0022,-0.006,-0.0034,-0.0115,-0.0095,-0.0177,-0.0238,-0.0287,-0.026,-0.0337,-0.0345,-0.0343,-0.032,-0.0317,-0.0352,-0.0352,-0.0352,-0.0353,-0.0353,0,-0.0024,-0.0007,0.0002,0.0018,0.0036,0.0042,0.0059,0.004,0.005,0.009,0.0017,0.0062,-0.0058,-0.0065,-0.0174,-0.0213,-0.0204,-0.0316,-0.0321,-0.032,-0.0319,-0.0376,-0.0379,-0.0349,-0.035,-0.0351,-0.0351,0,-0.0003,0.0,0.0026,0.0037,0.0046,0.006,0.0119,0.0136,0.0148,0.0218,0.0234,0.0233,0.0224,0.0114,0.0032,-0.0079,-0.0157,-0.0171,-0.014,-0.0144,-0.0256,-0.0262,-0.019,-0.0189,-0.0188,-0.0187,-0.0186,0,0.0026,0.0032,0.0045,0.0068,0.0082,0.0115,0.0147,0.0172,0.0214,0.033,0.0377,0.0421,0.0445,0.0346,0.0159,0.001,-0.0053,-0.0072,-0.0193,-0.0227,-0.024,-0.0247,-0.0253,-0.0154,-0.0153,-0.0152,-0.0152,0,0.0076,0.006,0.0081,0.0118,0.0153,0.021,0.0263,0.033,0.0395,0.0492,0.0631,0.0678,0.0588,0.045,0.0257,0.013,-0.0066,-0.0062,-0.0082,-0.0206,-0.019,-0.0204,-0.0212,-0.0145,-0.0145,-0.0146,-0.0146,-0.0146,0.0116,0.0133,0.0145,0.0194,0.0231,0.0314,0.0393,0.048,0.0615,0.0763,0.0786,0.0845,0.0684,0.0422,0.0248,0.0037,0.001,-0.01,-0.0104,-0.0108,-0.0129,-0.0113,-0.0054,-0.0054,-0.0054,-0.0054,-0.0054,0,0.018,0.0189,0.0232,0.0298,0.0366,0.0359,0.0478,0.0574,0.0765,0.0852,0.095,0.0817,0.0669,0.0468,0.0165,-0.0011,-0.0059,-0.0072,-0.0105,-0.0109,-0.0114,-0.0139,-0.0064,-0.0065,-0.0065,-0.0066,0,0,0.0218,0.0273,0.0298,0.042,0.0461,0.0569,0.065,0.0779,0.0856,0.0982,0.099,0.0939,0.0718,0.0495,0.0267,0.0103,0.003,0.0065,0.009,0.0074,0.0072,-0.0112,-0.0151,0,0,0,0,0]}],[{"header":{"parameterUnit":"m.s-1","parameterCategory":2,"la1":30.2991,"la2":30.254,"lo1":-89.0895,"lo2":-89.0444,"dy":0.0017,"dx":0.0017,"nx":28,"ny":28,"refTime":"2024-07-10T03:00:00:Z","depth":"4","parameterNumber":2,"parameterNumberName":"U-component_of_CURRENTS"},"data":[0,0,0,0,0,0,0,0,0,0,0,0,0,0,0,0,0,0,0,0,0,0,0,0,0,0,0,0,0,0,0,0,0,0,0,0,0,0,0,0,0,0,0,0,0,0,0,0,0,0,0,0,0,0,0,0,0,0,0.0441,0.0441,0,0.0387,0.0386,0.0385,0.037,0.0371,0.0372,0.0373,0.0447,0.0448,0.045,0,0,0,0,0,0,0,0,0,0,0,0,0,0.0502,0.05,0.0441,0.0441,0.0441,0.0387,0.0386,0.0385,0.037,0.0371,0.0372,0.0373,0.0447,0.0448,0.045,0,0,0,0,0,0,0,0,0,0,0,0,0,0.046,0.05,0.0441,0.0431,0.043,0.0388,0.0386,0.0385,0.037,0.0371,0.0372,0.0373,0.0446,0.0448,0.045,0.0438,0,0,0.0456,0.0456,0,0,0,0,0,0,0,0,0.0462,0.0457,0.0433,0.0432,0.043,0.0391,0.0435,0.0411,0.037,0.0387,0.0373,0.0374,0.0443,0.0445,0.0423,0.0442,0.0445,0.0456,0.0457,0.0458,0.0458,0,0,0,0,0,0,0,0.0465,0.0459,0.0415,0.0432,0.0431,0.0419,0.0414,0.0429,0.0408,0.0386,0.0386,0.0387,0.0443,0.0421,0.0425,0.0446,0.0456,0.0457,0.0459,0.0459,0.0618,0.0621,0,0,0,0,0,0,0.0482,0.0461,0.0417,0.0414,0.0455,0.0417,0.0411,0.0398,0.0405,0.0407,0.0387,0.0387,0.0417,0.0423,0.0428,0.0542,0.0458,0.046,0.0461,0.0615,0.0619,0.0622,0,0,0,0,0,0,0.0483,0.0478,0.0419,0.0441,0.0434,0.0416,0.0401,0.0397,0.0405,0.0405,0.0409,0.0404,0.0418,0.0425,0.0467,0.0541,0.046,0.0462,0.0611,0.0616,0.0621,0.069,0,0,0,0,0,0,0.0485,0.0478,0.0485,0.0442,0.0433,0.0425,0.04,0.0395,0.0405,0.0406,0.0421,0.0426,0.042,0.0465,0.0469,0.0542,0.0464,0.0608,0.0614,0.0619,0.0684,0.0696,0.0707,0,0,0,0,0,0.0487,0.049,0.0485,0.0481,0.044,0.0427,0.0421,0.0409,0.0406,0.0418,0.0425,0.0427,0.0507,0.0467,0.0472,0.0547,0.0605,0.0612,0.0619,0.0679,0.0694,0.0707,0,0,0,0,0,0,0.0511,0.0488,0.0482,0.0476,0.047,0.0427,0.0438,0.0426,0.0434,0.0444,0.044,0.0446,0.0518,0.0521,0.0478,0.0615,0.0568,0.0576,0.0612,0.0626,0.0638,0.0606,0.0465,0,0,0,0,0,0.0522,0.0525,0.05,0.05,0.0501,0.0474,0.0472,0.0463,0.0458,0.0462,0.0479,0.0508,0.0544,0.0574,0.0599,0.0658,0.0637,0.0721,0.0733,0.0742,0.0724,0.0771,0.0784,0.0645,0.0645,0.0645,0,0,0.0529,0.0521,0.052,0.0508,0.0498,0.048,0.0475,0.0482,0.0494,0.0473,0.0516,0.0543,0.0567,0.0634,0.0671,0.0651,0.077,0.0751,0.0759,0.0734,0.0779,0.0792,0.0804,0.065,0.0649,0.0648,0,0,0.0542,0.0541,0.0548,0.0545,0.0548,0.0515,0.0527,0.0515,0.0552,0.0586,0.0588,0.0642,0.07,0.0723,0.0743,0.0834,0.0824,0.0884,0.0922,0.097,0.0981,0.099,0.0963,0.0969,0.0898,0.0898,0.0898,0,0.0551,0.0551,0.0551,0.0555,0.056,0.0532,0.0537,0.0548,0.0561,0.0603,0.0623,0.0698,0.0734,0.079,0.0842,0.0859,0.0864,0.0862,0.0982,0.0991,0.0999,0.0969,0.0975,0.0902,0.0902,0.0901,0.0901,0,0.0559,0.0568,0.0575,0.0559,0.0565,0.0569,0.0579,0.0609,0.0645,0.0657,0.0754,0.079,0.0837,0.0886,0.0897,0.099,0.0966,0.0982,0.0935,0.1016,0.098,0.0985,0.0908,0.0906,0.0905,0.0904,0,0,0.0541,0.0575,0.0576,0.059,0.058,0.0576,0.0616,0.0643,0.067,0.0731,0.0784,0.0883,0.091,0.0934,0.0972,0.1023,0.11,0.1048,0.1049,0.0998,0.1167,0.1118,0.1117,0.1158,0.116,0.1161,0.111,0,0.0546,0.0566,0.0584,0.059,0.0596,0.0612,0.0642,0.0672,0.072,0.076,0.0831,0.0886,0.093,0.0976,0.1038,0.1093,0.1121,0.1109,0.1113,0.1111,0.1042,0.1125,0.1167,0.1113,0.1114,0.1115,0.1115,0,0.0532,0.0558,0.0586,0.063,0.0638,0.0631,0.0676,0.0713,0.0759,0.0815,0.0868,0.0903,0.0988,0.1014,0.1117,0.112,0.115,0.117,0.1169,0.1097,0.1073,0.1023,0.1123,0.1122,0.1122,0.1121,0.1121,0,0.0511,0.0551,0.0583,0.0593,0.0625,0.0668,0.0683,0.0729,0.0788,0.084,0.0876,0.0944,0.1013,0.1068,0.1152,0.1155,0.1229,0.1229,0.1176,0.1169,0.119,0.1181,0.1269,0.1269,0.1269,0.1269,0.1269,0,0.0495,0.0516,0.0578,0.0592,0.0629,0.0672,0.072,0.0751,0.0809,0.0849,0.0911,0.0958,0.1051,0.1109,0.1144,0.1184,0.1231,0.1176,0.1172,0.1219,0.1214,0.1191,0.1182,0.1267,0.1268,0.1268,0.1268,0,0.0457,0.0495,0.0534,0.0601,0.0618,0.065,0.0725,0.0759,0.0827,0.0878,0.0904,0.1003,0.1097,0.1136,0.1214,0.1189,0.1206,0.1194,0.1198,0.1195,0.1094,0.109,0.1108,0.1106,0.1104,0.1103,0.1102,0,0.0441,0.0459,0.0531,0.0551,0.0584,0.0638,0.067,0.0749,0.0787,0.0903,0.0922,0.1034,0.1089,0.1133,0.1194,0.1192,0.1195,0.1143,0.1153,0.1093,0.1087,0.1085,0.1084,0.11,0.1099,0.1099,0.1099,0,0.0413,0.0444,0.0478,0.0523,0.0562,0.0598,0.0656,0.0682,0.0776,0.0848,0.0926,0.0969,0.1057,0.1113,0.1125,0.113,0.1149,0.1128,0.113,0.1139,0.1083,0.1079,0.1079,0.1094,0.1094,0.1095,0.1095,0,0.0396,0.0404,0.0451,0.0484,0.0527,0.0548,0.0586,0.0646,0.0701,0.0826,0.0854,0.0968,0.1057,0.1082,0.1099,0.1101,0.1084,0.1018,0.1026,0.1032,0.1039,0.096,0.0931,0,0,0,0,0,0.0372,0.0371,0.0405,0.0436,0.048,0.0503,0.0568,0.0613,0.0707,0.074,0.0795,0.0869,0.0932,0.0998,0.0988,0.1058,0.1075,0.1037,0.0999,0.1066,0.1071,0.1092,0,0,0,0,0,0,0.0358,0.0372,0.0387,0.0391,0.0406,0.0443,0.0486,0.0547,0.0576,0.0677,0.0735,0.0796,0.089,0.0936,0.0968,0.0981,0.0931,0.1102,0.1099,0.1062,0.1068,0.1072,0.1095,0,0,0,0,0]},{"header":{"parameterUnit":"m.s-1","parameterCategory":2,"la1":30.2991,"la2":30.254,"lo1":-89.0895,"lo2":-89.0444,"dy":0.0017,"dx":0.0017,"nx":28,"ny":28,"refTime":"2024-07-10T03:00:00:Z","depth":"4","parameterNumber":3,"parameterNumberName":"V-component_of_CURRENTS"},"data":[0,0,0,0,0,0,0,0,0,0,0,0,0,0,0,0,0,0,0,0,0,0,0,0,0,0,0,0,0,0,0,0,0,0,0,0,0,0,0,0,0,0,0,0,0,0,0,0,0,0,0,0,0,0,0,0,0,0,0.0466,0.0466,0,0.0477,0.0477,0.0477,0.053,0.0532,0.0533,0.0534,0.0575,0.0575,0.0575,0,0,0,0,0,0,0,0,0,0,0,0,0,0.0445,0.0446,0.0466,0.0466,0.0466,0.0477,0.0477,0.0477,0.053,0.0532,0.0533,0.0534,0.0575,0.0575,0.0575,0,0,0,0,0,0,0,0,0,0,0,0,0,0.0456,0.0446,0.0466,0.0493,0.0495,0.0477,0.0477,0.0477,0.053,0.0532,0.0533,0.0535,0.0575,0.0575,0.0575,0.0542,0,0,0.0575,0.0576,0,0,0,0,0,0,0,0,0.0456,0.0457,0.0489,0.0491,0.0494,0.0503,0.0485,0.05,0.053,0.0518,0.0534,0.0536,0.0552,0.0554,0.0554,0.0544,0.0546,0.0576,0.0576,0.0576,0.0576,0,0,0,0,0,0,0,0.0455,0.0457,0.0472,0.0489,0.0492,0.0488,0.0492,0.0488,0.0527,0.0519,0.0523,0.0521,0.0554,0.0553,0.0555,0.0546,0.0575,0.0576,0.0576,0.0576,0.0551,0.055,0,0,0,0,0,0,0.0451,0.0456,0.0472,0.0472,0.0477,0.0487,0.0492,0.0499,0.0527,0.0532,0.052,0.0524,0.0552,0.0555,0.0557,0.0571,0.0576,0.0576,0.0576,0.0552,0.0551,0.055,0,0,0,0,0,0,0.0451,0.0453,0.0471,0.0463,0.0465,0.0486,0.0494,0.0499,0.0511,0.0526,0.0533,0.0529,0.0554,0.0557,0.0575,0.0572,0.0576,0.0576,0.0553,0.0551,0.0551,0.0567,0,0,0,0,0,0,0.0451,0.0453,0.0461,0.0463,0.0465,0.0466,0.0492,0.0498,0.0506,0.0512,0.0536,0.0541,0.0555,0.0575,0.0576,0.0572,0.0576,0.0553,0.0552,0.0551,0.0567,0.0566,0.0566,0,0,0,0,0,0.045,0.0449,0.0461,0.0463,0.0475,0.0465,0.0466,0.0487,0.0505,0.0506,0.0535,0.0541,0.0566,0.0575,0.0576,0.0572,0.0554,0.0552,0.0551,0.0567,0.0567,0.0566,0,0,0,0,0,0,0.044,0.0454,0.0468,0.0472,0.0472,0.0474,0.0478,0.0486,0.0506,0.0524,0.054,0.0546,0.0559,0.0556,0.0565,0.0557,0.0557,0.0555,0.0569,0.0568,0.0567,0.057,0.0576,0,0,0,0,0,0.0441,0.0449,0.0454,0.0457,0.0461,0.0469,0.047,0.0485,0.0498,0.051,0.0525,0.0539,0.0546,0.0554,0.0559,0.0555,0.0526,0.0547,0.0547,0.0546,0.0547,0.0493,0.0488,0.0545,0.0545,0.0545,0,0,0.0437,0.0445,0.045,0.0456,0.0463,0.0465,0.0475,0.0481,0.0492,0.0509,0.0534,0.054,0.0545,0.0552,0.0554,0.0554,0.0513,0.0544,0.0544,0.0545,0.0491,0.0485,0.0481,0.0544,0.0544,0.0544,0,0,0.0428,0.0443,0.0449,0.0454,0.0465,0.0465,0.0467,0.0476,0.0495,0.0509,0.0526,0.0532,0.0541,0.0545,0.0548,0.0538,0.0513,0.0533,0.0535,0.0483,0.0478,0.0474,0.0426,0.0417,0.0532,0.0532,0.0532,0,0.0423,0.0438,0.0445,0.0454,0.0463,0.0465,0.0474,0.0482,0.0497,0.0508,0.0523,0.0527,0.0537,0.0534,0.0543,0.0538,0.0504,0.0544,0.0483,0.0478,0.0473,0.0425,0.0415,0.0533,0.0533,0.0533,0.0532,0,0.0424,0.0439,0.0441,0.0459,0.0463,0.0468,0.0481,0.0492,0.0509,0.0513,0.0522,0.053,0.0532,0.0527,0.0543,0.0509,0.0495,0.049,0.0488,0.0468,0.0419,0.0408,0.0534,0.0533,0.0533,0.0533,0,0,0.0407,0.0437,0.0441,0.046,0.0474,0.0477,0.0493,0.05,0.0514,0.0518,0.0521,0.0532,0.0529,0.053,0.053,0.0492,0.0436,0.0482,0.0479,0.0441,0.0317,0.0313,0.03,0.0418,0.0416,0.0415,0.0296,0,0.0409,0.0431,0.0444,0.0464,0.0479,0.0494,0.0506,0.0517,0.0527,0.0527,0.0519,0.0523,0.053,0.0536,0.0498,0.0461,0.0408,0.0468,0.0338,0.0334,0.0337,0.0288,0.041,0.0288,0.0286,0.0284,0.0282,0,0.0414,0.043,0.0456,0.0487,0.0496,0.0504,0.053,0.0545,0.0541,0.0551,0.0538,0.0529,0.0498,0.0497,0.0402,0.044,0.0379,0.0335,0.0329,0.0313,0.0309,0.0312,0.0262,0.0264,0.0265,0.0267,0.0268,0,0.0412,0.044,0.0464,0.0477,0.0505,0.0525,0.0537,0.0551,0.0573,0.0561,0.0561,0.0516,0.0501,0.0418,0.0353,0.037,0.0225,0.0235,0.0161,0.016,0.0195,0.0202,0.0133,0.0133,0.0133,0.0134,0.0134,0,0.0414,0.0434,0.0469,0.0485,0.0517,0.0538,0.0571,0.0579,0.0588,0.0597,0.0574,0.0559,0.0479,0.0401,0.0328,0.0213,0.02,0.0147,0.0123,0.0204,0.0213,0.0187,0.0195,0.0129,0.013,0.0131,0.0132,0,0.0413,0.0434,0.0466,0.0504,0.0521,0.0547,0.0597,0.0619,0.0625,0.063,0.0626,0.0579,0.0485,0.0387,0.0248,0.0189,0.0075,0.0028,0.0116,0.0101,0.0049,0.0059,-0.0064,-0.0065,-0.0066,-0.0067,-0.0068,0,0.0413,0.0432,0.0482,0.0507,0.0528,0.0574,0.0609,0.0637,0.0658,0.0641,0.0634,0.0554,0.0509,0.0304,0.0206,0.0038,0.0021,-0.0047,0.0009,0.0037,0.0025,0.0037,0.0048,-0.007,-0.007,-0.007,-0.0071,0,0.0415,0.0437,0.0465,0.0515,0.0557,0.0606,0.065,0.0664,0.0686,0.0688,0.0632,0.0539,0.0425,0.0297,0.016,0.0046,-0.0001,-0.0058,-0.0056,-0.0004,0.0028,0.0021,0.0033,-0.0075,-0.0074,-0.0074,-0.0073,0,0.0417,0.0435,0.0474,0.0518,0.0572,0.0616,0.0644,0.0661,0.0681,0.066,0.0634,0.0523,0.0464,0.0297,0.0173,0.0061,0.0045,0.0014,0.0012,0.0015,0.0086,0.0142,0.0038,0,0,0,0,0,0.0414,0.0435,0.0473,0.052,0.0574,0.0606,0.0662,0.0686,0.07,0.0663,0.0651,0.0545,0.0372,0.0301,0.0188,0.0157,0.0025,0.0019,-0.0011,-0.0096,-0.0091,-0.002,0,0,0,0,0,0,0.041,0.0447,0.0466,0.0517,0.0547,0.0609,0.0646,0.0658,0.0641,0.0635,0.0549,0.0508,0.0347,0.0431,0.018,0.0147,0.0111,-0.0056,-0.0059,-0.0098,-0.0094,-0.0091,-0.0016,0,0,0,0,0]}]]